Погода в Лабе

Гвинея     11°25′48″N   12°17′47″W
темп.,
°C
ветер,
м/с
пор.,
м/с
влажн.,
%
обл.,
%
осадки,
мм/ч
давл.,
гПа
погр.,
м
16 мая, вс
вс1600:00+25ююз3762100 0.0 1013467
03:00+24зюз236299 0.0 1011118
06:00+24зсз116196 0.0 101237
09:00+27ссз235066 0.0 1014535
12:00+31ссв343370 0.0 10122117
15:00+25в7961100 0.9 1012863
18:00+24зсз126880 5.9 1012125
21:00+24ююз116886 0.0 101311
17 мая, пн
пн1700:00+24ю1163100 0.3 101416
03:00+22ю2268100 0.1 101220
06:00+22з2373100 0.3 101496
09:00+26з2253100 0.0 1014391
12:00+33ссз253160 0.0 10121894
15:00+32св243164 0.1 10091627
18:00+27с1352100 0.6 1010174
21:00+25з1265100 0.7 101386
18 мая, вт
вт1800:00+24ююз2269100 0.7 101351
03:00+23ююв2776100 0.0 1013335
06:00+23зюз137597 0.0 1013129
09:00+28зюз115188 0.0 1014360
12:00+35св252983 0.0 10122450
15:00+33сз1331100 0.0 10081916
18:00+23з468089 1.9 1011279
21:00+22зюз2383100 1.1 1014126
19 мая, ср
ср1900:00+23ююв117489 1.1 101416
03:00+24зюз1168100 0.0 101316
06:00+23ююз2368100 0.0 101357
09:00+27з125431 0.0 1015490
12:00+33ссв353397 0.0 10132184
15:00+34всв353093 0.1 10103000
18:00+24зюз3567100 0.8 1012106
21:00+24ю116988 0.1 101427
20 мая, чт
чт2000:00+24ююз116371 0.1 101412
03:00+24з226488 0.0 101349
06:00+22зюз2382100 0.9 101489
09:00+26зсз236558 0.0 1015463
12:00+32сз0145100 0.1 10151456
15:00+28юз3353100 1.3 1012890
18:00+21зюз3690100 16.4 1013227
21:00+22зюз2389100 0.3 1014101